| time (UTC) | temp F | wind direction | speed MPH | gust MPH | rain 1hr in | rain 24hr in | rain mn in | humidity % | barometer mb |
| 20260509063025 | 50 | 225 | 0.0 | 2.0 | 0.00 | 0.00 | 0.00 | 73 | 1012.9 |
| 20260509062508 | 50 | 225 | 0.0 | 2.0 | 0.00 | 0.00 | 0.00 | 74 | 1013.0 |
| 20260509062017 | 50 | 225 | 0.0 | 2.0 | 0.00 | 0.00 | 0.00 | 73 | 1012.9 |
| 20260509061528 | 50 | 247 | 0.0 | 2.0 | 0.00 | 0.00 | 0.00 | 73 | 1013.0 |
| 20260509061005 | 50 | 247 | 0.0 | 2.0 | 0.00 | 0.00 | 0.00 | 71 | 1013.0 |
| 20260509060502 | 51 | 246 | 0.0 | 2.0 | 0.00 | 0.00 | 0.00 | 71 | 1013.0 |
| 20260509060017 | 51 | 190 | 0.0 | 2.0 | 0.00 | 0.00 | 0.00 | 71 | 1013.1 |
| 20260509055503 | 51 | 163 | 0.0 | 2.0 | 0.00 | 0.00 | 0.00 | 69 | 1013.0 |
| 20260509055006 | 52 | 233 | 0.0 | 2.0 | 0.00 | 0.00 | 0.00 | 68 | 1013.1 |
| 20260509054527 | 52 | 227 | 0.0 | 2.0 | 0.00 | 0.00 | 0.00 | 67 | 1013.1 |
| 20260509054008 | 53 | 227 | 0.0 | 2.0 | 0.00 | 0.00 | 0.00 | 66 | 1013.1 |
| 20260509053510 | 53 | 220 | 0.0 | 2.0 | 0.00 | 0.00 | 0.00 | 66 | 1013.2 |
| 20260509053029 | 53 | 220 | 0.0 | 2.0 | 0.00 | 0.00 | 0.00 | 66 | 1013.3 |
| 20260509052502 | 54 | 220 | 0.0 | 2.0 | 0.00 | 0.00 | 0.00 | 64 | 1013.4 |
| 20260509052003 | 54 | 206 | 0.0 | 2.0 | 0.00 | 0.00 | 0.00 | 64 | 1013.3 |
| 20260509051512 | 54 | 248 | 0.0 | 2.0 | 0.00 | 0.00 | 0.00 | 62 | 1013.5 |
| 20260509051008 | 54 | 218 | 1.0 | 2.0 | 0.00 | 0.00 | 0.00 | 62 | 1013.5 |
| 20260509050507 | 54 | 184 | 0.0 | 2.0 | 0.00 | 0.00 | 0.00 | 66 | 1013.6 |
| 20260509050022 | 54 | 158 | 0.0 | 2.0 | 0.00 | 0.00 | 0.00 | 64 | 1013.7 |
| 20260509045513 | 54 | 240 | 1.0 | 2.0 | 0.00 | 0.00 | 0.00 | 66 | 1013.8 |
| 20260509045011 | 54 | 98 | 0.0 | 2.0 | 0.00 | 0.00 | 0.00 | 65 | 1013.8 |
| 20260509044506 | 54 | 42 | 0.0 | 2.0 | 0.00 | 0.00 | 0.00 | 65 | 1013.9 |
| 20260509044010 | 54 | 90 | 0.0 | 2.0 | 0.00 | 0.00 | 0.00 | 65 | 1013.9 |
| 20260509043509 | 54 | 234 | 0.0 | 2.0 | 0.00 | 0.00 | 0.00 | 65 | 1014.0 |
| 20260509043018 | 55 | 234 | 0.0 | 2.0 | 0.00 | 0.00 | 0.00 | 65 | 1014.0 |
| 20260509042509 | 55 | 234 | 1.0 | 2.0 | 0.00 | 0.00 | 0.00 | 61 | 1014.1 |
| 20260509042014 | 55 | 242 | 0.0 | 2.0 | 0.00 | 0.00 | 0.00 | 63 | 1014.2 |
| 20260509041544 | 55 | 242 | 0.0 | 0.0 | 0.00 | 0.00 | 0.00 | 63 | 1014.2 |
| 20260509041009 | 55 | 242 | 0.0 | 0.0 | 0.00 | 0.00 | 0.00 | 61 | 1014.3 |
| 20260509040506 | 56 | 242 | 0.0 | 0.0 | 0.00 | 0.00 | 0.00 | 61 | 1014.3 |
| 20260509040012 | 56 | 242 | 0.0 | 2.0 | 0.00 | 0.00 | 0.00 | 61 | 1014.4 |
| 20260509035507 | 56 | 242 | 0.0 | 2.0 | 0.00 | 0.00 | 0.00 | 61 | 1014.5 |
| 20260509035005 | 56 | 248 | 0.0 | 2.0 | 0.00 | 0.00 | 0.00 | 61 | 1014.5 |
| 20260509034522 | 56 | 220 | 0.0 | 2.0 | 0.00 | 0.00 | 0.00 | 61 | 1014.5 |
| 20260509034007 | 56 | 201 | 0.0 | 2.0 | 0.00 | 0.00 | 0.00 | 60 | 1014.5 |
| 20260509033511 | 57 | 202 | 0.0 | 2.0 | 0.00 | 0.00 | 0.00 | 60 | 1014.5 |
| 20260509033028 | 57 | 202 | 0.0 | 2.0 | 0.00 | 0.00 | 0.00 | 60 | 1014.5 |
| 20260509032504 | 57 | 207 | 0.0 | 1.0 | 0.00 | 0.00 | 0.00 | 59 | 1014.5 |
| 20260509032003 | 57 | 207 | 0.0 | 2.0 | 0.00 | 0.00 | 0.00 | 58 | 1014.5 |
| 20260509031515 | 58 | 207 | 0.0 | 2.0 | 0.00 | 0.00 | 0.00 | 57 | 1014.5 |
| 20260509031007 | 58 | 207 | 0.0 | 2.0 | 0.00 | 0.00 | 0.00 | 56 | 1014.5 |
| 20260509030511 | 59 | 209 | 0.0 | 2.0 | 0.00 | 0.00 | 0.00 | 55 | 1014.5 |
| 20260509030028 | 59 | 209 | 0.0 | 2.0 | 0.00 | 0.00 | 0.00 | 54 | 1014.4 |
| 20260509025510 | 60 | 190 | 0.0 | 2.0 | 0.00 | 0.00 | 0.00 | 52 | 1014.3 |
| 20260509025012 | 60 | 190 | 0.0 | 2.0 | 0.00 | 0.00 | 0.00 | 51 | 1014.2 |
| 20260509024511 | 60 | 191 | 0.0 | 2.0 | 0.00 | 0.00 | 0.00 | 49 | 1014.2 |
| 20260509024007 | 60 | 190 | 1.0 | 2.0 | 0.00 | 0.00 | 0.00 | 50 | 1014.1 |
| 20260509023508 | 61 | 128 | 0.0 | 2.0 | 0.00 | 0.00 | 0.00 | 49 | 1014.0 |
| 20260509023026 | 61 | 190 | 0.0 | 2.0 | 0.00 | 0.00 | 0.00 | 48 | 1013.9 |
| 20260509022508 | 62 | 187 | 1.0 | 2.0 | 0.00 | 0.00 | 0.00 | 47 | 1013.8 |
| 20260509022013 | 62 | 155 | 0.0 | 2.0 | 0.00 | 0.00 | 0.00 | 47 | 1013.8 |
| 20260509021533 | 63 | 155 | 0.0 | 2.0 | 0.00 | 0.00 | 0.00 | 46 | 1013.8 |
| 20260509021009 | 63 | 103 | 0.0 | 2.0 | 0.00 | 0.00 | 0.00 | 46 | 1013.7 |
| 20260509020508 | 64 | 103 | 0.0 | 2.0 | 0.00 | 0.00 | 0.00 | 44 | 1013.6 |
| 20260509020024 | 64 | 103 | 0.0 | 2.0 | 0.00 | 0.00 | 0.00 | 44 | 1013.6 |
| 20260509015505 | 65 | 103 | 0.0 | 2.0 | 0.00 | 0.00 | 0.00 | 42 | 1013.5 |
| 20260509015010 | 65 | 84 | 0.0 | 2.0 | 0.00 | 0.00 | 0.00 | 41 | 1013.5 |
| 20260509014522 | 65 | 82 | 0.0 | 2.0 | 0.00 | 0.00 | 0.00 | 42 | 1013.5 |
| 20260509014008 | 66 | 82 | 0.0 | 2.0 | 0.00 | 0.00 | 0.00 | 42 | 1013.5 |
| 20260509013513 | 66 | 92 | 0.0 | 2.0 | 0.00 | 0.00 | 0.00 | 41 | 1013.5 |
| 20260509013037 | 66 | 71 | 0.0 | 2.0 | 0.00 | 0.00 | 0.00 | 40 | 1013.5 |
| 20260509012506 | 67 | 110 | 0.0 | 3.0 | 0.00 | 0.00 | 0.00 | 41 | 1013.5 |
| 20260509012007 | 67 | 101 | 1.0 | 3.0 | 0.00 | 0.00 | 0.00 | 39 | 1013.5 |
| 20260509011520 | 67 | 102 | 0.0 | 4.0 | 0.00 | 0.00 | 0.00 | 39 | 1013.5 |
| 20260509011007 | 68 | 105 | 2.0 | 4.0 | 0.00 | 0.00 | 0.00 | 38 | 1013.4 |
| 20260509010515 | 68 | 113 | 1.0 | 3.0 | 0.00 | 0.00 | 0.00 | 37 | 1013.3 |
| 20260509010028 | 69 | 130 | 0.0 | 3.0 | 0.00 | 0.00 | 0.00 | 37 | 1013.3 |
| 20260509005509 | 69 | 78 | 1.0 | 3.0 | 0.00 | 0.00 | 0.00 | 36 | 1013.3 |
| 20260509005010 | 69 | 205 | 0.0 | 3.0 | 0.00 | 0.00 | 0.00 | 36 | 1013.3 |
| 20260509004517 | 69 | 150 | 1.0 | 3.0 | 0.00 | 0.00 | 0.00 | 36 | 1013.3 |
| 20260509004007 | 69 | 155 | 0.0 | 4.0 | 0.00 | 0.00 | 0.00 | 36 | 1013.4 |
| 20260509003509 | 69 | 166 | 0.0 | 4.0 | 0.00 | 0.00 | 0.00 | 36 | 1013.3 |
| 20260509003024 | 69 | 100 | 1.0 | 4.0 | 0.00 | 0.00 | 0.00 | 37 | 1013.3 |
| 20260509002513 | 70 | 115 | 1.0 | 4.0 | 0.00 | 0.00 | 0.00 | 36 | 1013.3 |
| 20260509002010 | 70 | 92 | 1.0 | 4.0 | 0.00 | 0.00 | 0.00 | 36 | 1013.3 |
| 20260509001529 | 70 | 61 | 1.0 | 4.0 | 0.00 | 0.00 | 0.00 | 35 | 1013.3 |
| 20260509001010 | 70 | 55 | 1.0 | 5.0 | 0.00 | 0.00 | 0.00 | 35 | 1013.3 |
| 20260509000508 | 70 | 84 | 2.0 | 5.0 | 0.00 | 0.00 | 0.00 | 35 | 1013.3 |
| 20260509000016 | 71 | 74 | 2.0 | 4.0 | 0.00 | 0.00 | 0.00 | 34 | 1013.4 |
| 20260508235507 | 71 | 40 | 1.0 | 7.0 | 0.00 | 0.00 | 0.00 | 34 | 1013.4 |
| 20260508235012 | 71 | 86 | 2.0 | 8.0 | 0.00 | 0.00 | 0.00 | 34 | 1013.4 |
| 20260508234529 | 71 | 149 | 2.0 | 8.0 | 0.00 | 0.00 | 0.00 | 34 | 1013.4 |
| 20260508234011 | 71 | 42 | 2.0 | 4.0 | 0.00 | 0.00 | 0.00 | 35 | 1013.4 |
| 20260508233512 | 71 | 165 | 1.0 | 4.0 | 0.00 | 0.00 | 0.00 | 35 | 1013.4 |
| 20260508233030 | 71 | 44 | 1.0 | 4.0 | 0.00 | 0.00 | 0.00 | 34 | 1013.4 |
| 20260508232507 | 71 | 75 | 2.0 | 6.0 | 0.00 | 0.00 | 0.00 | 35 | 1013.4 |
| 20260508232010 | 71 | 69 | 1.0 | 6.0 | 0.00 | 0.00 | 0.00 | 35 | 1013.3 |
| 20260508231521 | 71 | 65 | 1.0 | 6.0 | 0.00 | 0.00 | 0.00 | 34 | 1013.3 |
| 20260508231007 | 71 | 173 | 3.0 | 6.0 | 0.00 | 0.00 | 0.00 | 33 | 1013.4 |
| 20260508230510 | 72 | 104 | 2.0 | 6.0 | 0.00 | 0.00 | 0.00 | 34 | 1013.5 |
| 20260508230039 | 72 | 103 | 0.0 | 6.0 | 0.00 | 0.00 | 0.00 | 34 | 1013.5 |
| 20260508225513 | 72 | 183 | 1.0 | 6.0 | 0.00 | 0.00 | 0.00 | 35 | 1013.4 |
| 20260508225009 | 72 | 184 | 1.0 | 4.0 | 0.00 | 0.00 | 0.00 | 34 | 1013.4 |
| 20260508224523 | 72 | 136 | 1.0 | 4.0 | 0.00 | 0.00 | 0.00 | 34 | 1013.5 |
| 20260508224006 | 71 | 59 | 2.0 | 4.0 | 0.00 | 0.00 | 0.00 | 35 | 1013.4 |
| 20260508223509 | 71 | 96 | 1.0 | 5.0 | 0.00 | 0.00 | 0.00 | 35 | 1013.4 |
| 20260508223028 | 72 | 36 | 2.0 | 5.0 | 0.00 | 0.00 | 0.00 | 35 | 1013.5 |
| 20260508222511 | 71 | 275 | 1.0 | 6.0 | 0.00 | 0.00 | 0.00 | 36 | 1013.5 |
| 20260508222010 | 71 | 197 | 2.0 | 6.0 | 0.00 | 0.00 | 0.00 | 35 | 1013.6 |
| 20260508221531 | 71 | 157 | 2.0 | 3.0 | 0.00 | 0.00 | 0.00 | 36 | 1013.6 |
| 20260508221009 | 70 | 301 | 1.0 | 3.0 | 0.00 | 0.00 | 0.00 | 36 | 1013.7 |
| 20260508220507 | 70 | 61 | 2.0 | 9.0 | 0.00 | 0.00 | 0.00 | 36 | 1013.8 |
| 20260508220026 | 70 | 284 | 2.0 | 12.0 | 0.00 | 0.00 | 0.00 | 37 | 1013.8 |
| 20260508215512 | 70 | 17 | 4.0 | 11.0 | 0.00 | 0.00 | 0.00 | 37 | 1013.8 |
| 20260508215013 | 70 | 57 | 2.0 | 10.0 | 0.00 | 0.00 | 0.00 | 37 | 1013.8 |
| 20260508214530 | 69 | 45 | 4.0 | 11.0 | 0.00 | 0.00 | 0.00 | 37 | 1013.8 |
| 20260508214009 | 69 | 9 | 5.0 | 11.0 | 0.00 | 0.00 | 0.00 | 37 | 1013.9 |
| 20260508213513 | 70 | 15 | 3.0 | 8.0 | 0.00 | 0.00 | 0.00 | 36 | 1014.0 |
| 20260508213037 | 69 | 319 | 2.0 | 8.0 | 0.00 | 0.00 | 0.00 | 36 | 1014.0 |
| 20260508212508 | 69 | 223 | 2.0 | 6.0 | 0.00 | 0.00 | 0.00 | 38 | 1014.1 |
| 20260508212012 | 69 | 19 | 1.0 | 5.0 | 0.00 | 0.00 | 0.00 | 38 | 1014.1 |
| 20260508211534 | 68 | 68 | 2.0 | 8.0 | 0.00 | 0.00 | 0.00 | 37 | 1014.3 |
| 20260508211011 | 68 | 230 | 3.0 | 8.0 | 0.00 | 0.00 | 0.00 | 37 | 1014.4 |
| 20260508210511 | 68 | 250 | 2.0 | 12.0 | 0.00 | 0.00 | 0.00 | 38 | 1014.4 |
| 20260508210028 | 68 | 63 | 5.0 | 11.0 | 0.00 | 0.00 | 0.00 | 38 | 1014.5 |
| 20260508205510 | 68 | 71 | 3.0 | 11.0 | 0.00 | 0.00 | 0.00 | 40 | 1014.5 |
| 20260508205012 | 68 | 344 | 1.0 | 9.0 | 0.00 | 0.00 | 0.00 | 38 | 1014.7 |
| 20260508204520 | 67 | 76 | 3.0 | 9.0 | 0.00 | 0.00 | 0.00 | 40 | 1014.7 |
| 20260508204010 | 68 | 29 | 5.0 | 9.0 | 0.00 | 0.00 | 0.00 | 38 | 1014.8 |
| 20260508203509 | 68 | 103 | 2.0 | 9.0 | 0.00 | 0.00 | 0.00 | 37 | 1014.8 |
| 20260508203032 | 67 | 79 | 2.0 | 8.0 | 0.00 | 0.00 | 0.00 | 39 | 1014.9 |
| 20260508202509 | 67 | 65 | 3.0 | 10.0 | 0.00 | 0.00 | 0.00 | 39 | 1014.9 |
| 20260508202007 | 67 | 336 | 4.0 | 10.0 | 0.00 | 0.00 | 0.00 | 39 | 1015.0 |
| 20260508201516 | 67 | 57 | 1.0 | 8.0 | 0.00 | 0.00 | 0.00 | 38 | 1015.0 |
| 20260508201008 | 67 | 360 | 4.0 | 10.0 | 0.00 | 0.00 | 0.00 | 38 | 1015.0 |
| 20260508200507 | 67 | 76 | 3.0 | 10.0 | 0.00 | 0.00 | 0.00 | 39 | 1015.1 |
| 20260508200024 | 67 | 336 | 2.0 | 6.0 | 0.00 | 0.00 | 0.00 | 38 | 1015.2 |
| 20260508195507 | 67 | 329 | 2.0 | 6.0 | 0.00 | 0.00 | 0.00 | 39 | 1015.2 |
| 20260508195003 | 67 | 360 | 3.0 | 8.0 | 0.00 | 0.00 | 0.00 | 38 | 1015.3 |
| 20260508194523 | 68 | 23 | 4.0 | 8.0 | 0.00 | 0.00 | 0.00 | 39 | 1015.3 |
| 20260508194006 | 68 | 9 | 1.0 | 5.0 | 0.00 | 0.00 | 0.00 | 39 | 1015.4 |
| 20260508193507 | 67 | 75 | 3.0 | 5.0 | 0.00 | 0.00 | 0.00 | 43 | 1015.4 |
| 20260508193016 | 66 | 345 | 3.0 | 6.0 | 0.00 | 0.00 | 0.00 | 41 | 1015.4 |
| 20260508192513 | 65 | 67 | 1.0 | 8.0 | 0.00 | 0.00 | 0.00 | 43 | 1015.4 |
| 20260508192012 | 65 | 52 | 4.0 | 8.0 | 0.00 | 0.00 | 0.00 | 41 | 1015.6 |
| 20260508191505 | 66 | 69 | 1.0 | 9.0 | 0.00 | 0.00 | 0.00 | 43 | 1015.6 |
| 20260508191004 | 65 | 24 | 3.0 | 9.0 | 0.00 | 0.00 | 0.00 | 41 | 1015.7 |
| 20260508190506 | 66 | 55 | 2.0 | 6.0 | 0.00 | 0.00 | 0.00 | 43 | 1015.8 |
| 20260508190014 | 65 | 135 | 1.0 | 8.0 | 0.00 | 0.00 | 0.00 | 44 | 1015.8 |
| 20260508185504 | 64 | 144 | 2.0 | 9.0 | 0.00 | 0.00 | 0.00 | 47 | 1016.0 |
| 20260508185012 | 64 | 71 | 3.0 | 10.0 | 0.00 | 0.00 | 0.00 | 46 | 1016.0 |
| 20260508184521 | 64 | 76 | 2.0 | 10.0 | 0.00 | 0.00 | 0.00 | 45 | 1015.9 |
| 20260508184008 | 64 | 58 | 3.0 | 7.0 | 0.00 | 0.00 | 0.00 | 44 | 1015.9 |
| 20260508183503 | 63 | 328 | 3.0 | 12.0 | 0.00 | 0.00 | 0.00 | 45 | 1016.1 |
| 20260508183007 | 63 | 43 | 6.0 | 12.0 | 0.00 | 0.00 | 0.00 | 46 | 1016.1 |
| 20260508182507 | 63 | 5 | 6.0 | 10.0 | 0.00 | 0.00 | 0.00 | 45 | 1016.1 |
| 20260508182006 | 62 | 129 | 3.0 | 9.0 | 0.00 | 0.00 | 0.00 | 46 | 1016.2 |
| 20260508181517 | 62 | 73 | 3.0 | 9.0 | 0.00 | 0.00 | 0.00 | 46 | 1016.1 |
| 20260508181010 | 63 | 30 | 2.0 | 9.0 | 0.00 | 0.00 | 0.00 | 44 | 1016.2 |
| 20260508180514 | 63 | 42 | 3.0 | 7.0 | 0.00 | 0.00 | 0.00 | 45 | 1016.3 |
| 20260508180027 | 62 | 5 | 0.0 | 7.0 | 0.00 | 0.00 | 0.00 | 45 | 1016.3 |
| 20260508175504 | 62 | 95 | 2.0 | 10.0 | 0.00 | 0.00 | 0.00 | 44 | 1016.3 |
| 20260508175010 | 63 | 86 | 3.0 | 10.0 | 0.00 | 0.00 | 0.00 | 46 | 1016.4 |
| 20260508174513 | 63 | 50 | 3.0 | 8.0 | 0.00 | 0.00 | 0.00 | 45 | 1016.4 |
| 20260508174007 | 63 | 352 | 3.0 | 11.0 | 0.00 | 0.00 | 0.00 | 44 | 1016.5 |
| 20260508173508 | 62 | 24 | 3.0 | 12.0 | 0.00 | 0.00 | 0.00 | 46 | 1016.6 |
| 20260508173022 | 62 | 352 | 5.0 | 12.0 | 0.00 | 0.00 | 0.00 | 46 | 1016.6 |
| 20260508172517 | 62 | 95 | 2.0 | 11.0 | 0.00 | 0.00 | 0.00 | 46 | 1016.5 |
| 20260508172015 | 63 | 36 | 3.0 | 8.0 | 0.00 | 0.00 | 0.00 | 45 | 1016.4 |
| 20260508171526 | 63 | 11 | 3.0 | 8.0 | 0.00 | 0.00 | 0.00 | 46 | 1016.5 |
| 20260508171010 | 62 | 69 | 3.0 | 8.0 | 0.00 | 0.00 | 0.00 | 46 | 1016.6 |
| 20260508170510 | 62 | 60 | 3.0 | 8.0 | 0.00 | 0.00 | 0.00 | 45 | 1016.6 |
| 20260508170013 | 62 | 113 | 2.0 | 9.0 | 0.00 | 0.00 | 0.00 | 47 | 1016.6 |
| 20260508165504 | 62 | 5 | 3.0 | 9.0 | 0.00 | 0.00 | 0.00 | 46 | 1016.7 |
| 20260508165006 | 62 | 22 | 2.0 | 9.0 | 0.00 | 0.00 | 0.00 | 46 | 1016.8 |
| 20260508164524 | 62 | 42 | 1.0 | 6.0 | 0.00 | 0.00 | 0.00 | 49 | 1016.8 |
| 20260508164010 | 61 | 111 | 2.0 | 6.0 | 0.00 | 0.00 | 0.00 | 48 | 1016.8 |
| 20260508163511 | 61 | 32 | 1.0 | 7.0 | 0.00 | 0.00 | 0.00 | 48 | 1016.8 |
| 20260508163028 | 62 | 156 | 2.0 | 7.0 | 0.00 | 0.00 | 0.00 | 47 | 1016.8 |
| 20260508162507 | 62 | 136 | 2.0 | 6.0 | 0.00 | 0.00 | 0.00 | 47 | 1016.8 |
| 20260508162013 | 62 | 79 | 1.0 | 6.0 | 0.00 | 0.00 | 0.00 | 49 | 1016.8 |
| 20260508161520 | 62 | 82 | 2.0 | 5.0 | 0.00 | 0.00 | 0.00 | 51 | 1016.8 |
| 20260508161010 | 61 | 94 | 1.0 | 6.0 | 0.00 | 0.00 | 0.00 | 52 | 1016.8 |
| 20260508160514 | 61 | 147 | 2.0 | 6.0 | 0.00 | 0.00 | 0.00 | 53 | 1016.8 |
| 20260508160027 | 60 | 59 | 1.0 | 9.0 | 0.00 | 0.00 | 0.00 | 53 | 1016.9 |
| 20260508155511 | 60 | 79 | 3.0 | 9.0 | 0.00 | 0.00 | 0.00 | 54 | 1016.9 |
| 20260508155014 | 59 | 93 | 3.0 | 9.0 | 0.00 | 0.00 | 0.00 | 55 | 1016.8 |
| 20260508154544 | 59 | 165 | 1.0 | 4.0 | 0.00 | 0.00 | 0.00 | 54 | 1016.8 |
| 20260508154009 | 59 | 107 | 1.0 | 6.0 | 0.00 | 0.00 | 0.00 | 54 | 1016.8 |
| 20260508153510 | 59 | 81 | 1.0 | 6.0 | 0.00 | 0.00 | 0.00 | 53 | 1016.7 |
| 20260508153024 | 59 | 113 | 1.0 | 7.0 | 0.00 | 0.00 | 0.00 | 54 | 1016.8 |
| 20260508152507 | 59 | 103 | 2.0 | 8.0 | 0.00 | 0.00 | 0.00 | 55 | 1016.7 |
| 20260508152012 | 58 | 92 | 2.0 | 8.0 | 0.00 | 0.00 | 0.00 | 59 | 1016.7 |
| 20260508151526 | 57 | 86 | 2.0 | 4.0 | 0.00 | 0.00 | 0.00 | 62 | 1016.6 |
| 20260508151015 | 56 | 146 | 0.0 | 6.0 | 0.00 | 0.00 | 0.00 | 63 | 1016.5 |
| 20260508150513 | 55 | 94 | 1.0 | 6.0 | 0.00 | 0.00 | 0.00 | 63 | 1016.6 |
| 20260508150017 | 55 | 161 | 1.0 | 6.0 | 0.00 | 0.00 | 0.00 | 64 | 1016.6 |
| 20260508145510 | 56 | 133 | 0.0 | 6.0 | 0.00 | 0.00 | 0.00 | 62 | 1016.6 |
| 20260508145009 | 56 | 128 | 2.0 | 5.0 | 0.00 | 0.00 | 0.00 | 62 | 1016.7 |
| 20260508144524 | 55 | 133 | 1.0 | 5.0 | 0.00 | 0.00 | 0.00 | 62 | 1016.8 |
| 20260508144013 | 55 | 149 | 1.0 | 5.0 | 0.00 | 0.00 | 0.00 | 62 | 1016.8 |
| 20260508143511 | 55 | 173 | 2.0 | 6.0 | 0.00 | 0.00 | 0.00 | 61 | 1016.8 |
| 20260508143029 | 55 | 169 | 1.0 | 6.0 | 0.00 | 0.00 | 0.00 | 63 | 1016.7 |
| 20260508142511 | 55 | 213 | 2.0 | 5.0 | 0.00 | 0.00 | 0.00 | 66 | 1016.8 |
| 20260508142012 | 54 | 124 | 1.0 | 3.0 | 0.00 | 0.00 | 0.00 | 67 | 1016.9 |
| 20260508141530 | 53 | 171 | 1.0 | 4.0 | 0.00 | 0.00 | 0.00 | 71 | 1017.1 |
| 20260508141011 | 52 | 197 | 1.0 | 4.0 | 0.00 | 0.00 | 0.00 | 72 | 1017.1 |
| 20260508140502 | 52 | 192 | 1.0 | 4.0 | 0.00 | 0.00 | 0.00 | 74 | 1017.2 |
| 20260508140008 | 51 | 191 | 1.0 | 3.0 | 0.00 | 0.00 | 0.00 | 77 | 1017.2 |
| 20260508135509 | 50 | 109 | 1.0 | 2.0 | 0.00 | 0.00 | 0.00 | 80 | 1017.2 |
| 20260508135012 | 49 | 178 | 0.0 | 2.0 | 0.00 | 0.00 | 0.00 | 82 | 1017.3 |
| 20260508134517 | 48 | 193 | 0.0 | 2.0 | 0.00 | 0.00 | 0.00 | 83 | 1017.3 |
| 20260508134006 | 47 | 194 | 0.0 | 2.0 | 0.00 | 0.00 | 0.00 | 86 | 1017.5 |
| 20260508133509 | 46 | 63 | 1.0 | 2.0 | 0.00 | 0.00 | 0.00 | 87 | 1017.5 |
| 20260508133043 | 45 | 119 | 1.0 | 2.0 | 0.00 | 0.00 | 0.00 | 89 | 1017.5 |
| 20260508132504 | 44 | 174 | 0.0 | 2.0 | 0.00 | 0.00 | 0.00 | 89 | 1017.4 |
| 20260508132004 | 44 | 117 | 0.0 | 2.0 | 0.00 | 0.00 | 0.00 | 88 | 1017.4 |
| 20260508131509 | 43 | 151 | 0.0 | 2.0 | 0.00 | 0.00 | 0.00 | 88 | 1017.4 |
| 20260508131007 | 43 | 178 | 0.0 | 2.0 | 0.00 | 0.00 | 0.00 | 89 | 1017.4 |
| 20260508130507 | 43 | 178 | 0.0 | 2.0 | 0.00 | 0.00 | 0.00 | 89 | 1017.5 |
| 20260508130025 | 43 | 186 | 0.0 | 2.0 | 0.00 | 0.00 | 0.00 | 89 | 1017.5 |
| 20260508125509 | 43 | 186 | 0.0 | 2.0 | 0.00 | 0.00 | 0.00 | 89 | 1017.6 |
| 20260508125009 | 43 | 192 | 0.0 | 2.0 | 0.00 | 0.00 | 0.00 | 90 | 1017.6 |
| 20260508124504 | 42 | 68 | 1.0 | 2.0 | 0.00 | 0.00 | 0.00 | 90 | 1017.6 |
| 20260508124006 | 42 | 181 | 0.0 | 2.0 | 0.00 | 0.00 | 0.00 | 90 | 1017.7 |
| 20260508123509 | 42 | 144 | 0.0 | 4.0 | 0.00 | 0.00 | 0.00 | 91 | 1017.7 |
| 20260508123025 | 42 | 141 | 0.0 | 4.0 | 0.00 | 0.00 | 0.00 | 91 | 1017.6 |
| 20260508122507 | 41 | 223 | 2.0 | 4.0 | 0.00 | 0.00 | 0.00 | 92 | 1017.5 |
| 20260508122011 | 41 | 189 | 1.0 | 2.0 | 0.00 | 0.00 | 0.00 | 93 | 1017.8 |
| 20260508121530 | 41 | 95 | 0.0 | 2.0 | 0.00 | 0.00 | 0.00 | 93 | 1018.0 |
| 20260508121010 | 41 | 58 | 0.0 | 2.0 | 0.00 | 0.00 | 0.00 | 93 | 1017.9 |
| 20260508120503 | 40 | 41 | 0.0 | 2.0 | 0.00 | 0.00 | 0.00 | 93 | 1017.7 |
| 20260508120012 | 40 | 41 | 1.0 | 2.0 | 0.00 | 0.00 | 0.00 | 93 | 1017.5 |
| 20260508115507 | 40 | 240 | 0.0 | 2.0 | 0.00 | 0.00 | 0.00 | 93 | 1017.1 |
| 20260508115007 | 40 | 240 | 0.0 | 2.0 | 0.00 | 0.00 | 0.00 | 93 | 1016.9 |
| 20260508114524 | 39 | 229 | 1.0 | 2.0 | 0.00 | 0.00 | 0.00 | 92 | 1016.6 |
| 20260508114007 | 39 | 221 | 0.0 | 2.0 | 0.00 | 0.00 | 0.00 | 92 | 1016.4 |
| 20260508113508 | 39 | 221 | 0.0 | 2.0 | 0.00 | 0.00 | 0.00 | 92 | 1016.5 |
| 20260508113028 | 39 | 227 | 0.0 | 1.0 | 0.00 | 0.00 | 0.00 | 92 | 1016.4 |
| 20260508112504 | 39 | 234 | 0.0 | 2.0 | 0.00 | 0.00 | 0.00 | 92 | 1016.4 |
| 20260508112003 | 39 | 234 | 0.0 | 2.0 | 0.00 | 0.00 | 0.00 | 92 | 1016.5 |
| 20260508111516 | 39 | 231 | 0.0 | 2.0 | 0.00 | 0.00 | 0.00 | 92 | 1016.5 |
| 20260508111008 | 39 | 231 | 0.0 | 2.0 | 0.00 | 0.00 | 0.00 | 92 | 1016.6 |
| 20260508110508 | 40 | 231 | 0.0 | 2.0 | 0.00 | 0.00 | 0.00 | 92 | 1016.5 |
| 20260508110004 | 40 | 222 | 1.0 | 2.0 | 0.00 | 0.00 | 0.00 | 91 | 1016.4 |
| 20260508105503 | 40 | 301 | 0.0 | 2.0 | 0.00 | 0.00 | 0.00 | 91 | 1016.4 |
| 20260508105004 | 40 | 336 | 0.0 | 2.0 | 0.00 | 0.00 | 0.00 | 91 | 1016.5 |
| 20260508104508 | 40 | 211 | 1.0 | 2.0 | 0.00 | 0.00 | 0.00 | 91 | 1016.4 |
| 20260508104003 | 40 | 195 | 0.0 | 2.0 | 0.00 | 0.00 | 0.00 | 91 | 1016.3 |
| 20260508103506 | 40 | 195 | 0.0 | 2.0 | 0.00 | 0.00 | 0.00 | 91 | 1016.2 |
| 20260508103018 | 40 | 188 | 0.0 | 2.0 | 0.00 | 0.00 | 0.00 | 91 | 1016.1 |
| 20260508102508 | 40 | 188 | 1.0 | 2.0 | 0.00 | 0.00 | 0.00 | 91 | 1016.1 |
| 20260508102010 | 40 | 56 | 0.0 | 2.0 | 0.00 | 0.00 | 0.00 | 91 | 1016.1 |
| 20260508101505 | 40 | 60 | 0.0 | 2.0 | 0.00 | 0.00 | 0.00 | 91 | 1015.8 |
| 20260508101004 | 40 | 81 | 0.0 | 3.0 | 0.00 | 0.00 | 0.00 | 91 | 1015.6 |
| 20260508100507 | 40 | 45 | 0.0 | 3.0 | 0.00 | 0.00 | 0.00 | 91 | 1015.5 |
| 20260508100012 | 40 | 44 | 1.0 | 2.0 | 0.00 | 0.00 | 0.00 | 91 | 1015.2 |
| 20260508095505 | 40 | 188 | 0.0 | 2.0 | 0.00 | 0.00 | 0.00 | 90 | 1015.1 |
| 20260508095007 | 40 | 189 | 0.0 | 2.0 | 0.00 | 0.00 | 0.00 | 90 | 1015.1 |
| 20260508094522 | 40 | 189 | 0.0 | 2.0 | 0.00 | 0.00 | 0.00 | 90 | 1015.2 |
| 20260508094008 | 41 | 189 | 0.0 | 2.0 | 0.00 | 0.00 | 0.00 | 90 | 1015.3 |
| 20260508093504 | 41 | 188 | 0.0 | 2.0 | 0.00 | 0.00 | 0.00 | 90 | 1015.3 |
| 20260508093011 | 41 | 189 | 1.0 | 2.0 | 0.00 | 0.00 | 0.00 | 89 | 1015.3 |
| 20260508092505 | 41 | 183 | 0.0 | 2.0 | 0.00 | 0.00 | 0.00 | 89 | 1015.2 |
| 20260508092004 | 41 | 183 | 0.0 | 2.0 | 0.00 | 0.00 | 0.00 | 89 | 1015.2 |
| 20260508091515 | 41 | 183 | 0.0 | 2.0 | 0.00 | 0.00 | 0.00 | 89 | 1015.2 |
| 20260508091012 | 42 | 183 | 0.0 | 2.0 | 0.00 | 0.00 | 0.00 | 88 | 1015.3 |
| 20260508090507 | 42 | 183 | 0.0 | 2.0 | 0.00 | 0.00 | 0.00 | 88 | 1015.4 |
| 20260508090043 | 42 | 183 | 0.0 | 2.0 | 0.00 | 0.00 | 0.00 | 88 | 1015.4 |
| 20260508085502 | 42 | 183 | 0.0 | 1.0 | 0.00 | 0.00 | 0.00 | 88 | 1015.6 |
| 20260508085002 | 42 | 183 | 0.0 | 1.0 | 0.00 | 0.00 | 0.00 | 88 | 1015.6 |
| 20260508084507 | 43 | 183 | 0.0 | 2.0 | 0.00 | 0.00 | 0.00 | 87 | 1015.6 |
| 20260508084008 | 43 | 183 | 0.0 | 2.0 | 0.00 | 0.00 | 0.00 | 88 | 1015.7 |
| 20260508083507 | 43 | 183 | 0.0 | 2.0 | 0.00 | 0.00 | 0.00 | 87 | 1015.7 |
| 20260508083024 | 43 | 182 | 0.0 | 2.0 | 0.00 | 0.00 | 0.00 | 87 | 1015.8 |
| 20260508082509 | 44 | 182 | 0.0 | 2.0 | 0.00 | 0.00 | 0.00 | 87 | 1015.8 |
| 20260508082010 | 44 | 168 | 0.0 | 2.0 | 0.00 | 0.00 | 0.00 | 86 | 1015.8 |
| 20260508081504 | 44 | 84 | 0.0 | 2.0 | 0.00 | 0.00 | 0.00 | 86 | 1015.9 |
| 20260508081003 | 44 | 82 | 0.0 | 2.0 | 0.00 | 0.00 | 0.00 | 85 | 1016.0 |
| 20260508080507 | 44 | 57 | 0.0 | 1.0 | 0.00 | 0.00 | 0.00 | 86 | 1016.1 |
| 20260508080014 | 45 | 142 | 0.0 | 2.0 | 0.00 | 0.00 | 0.00 | 86 | 1016.1 |
| 20260508075507 | 45 | 214 | 0.0 | 2.0 | 0.00 | 0.00 | 0.00 | 86 | 1016.2 |
| 20260508075008 | 45 | 229 | 1.0 | 2.0 | 0.00 | 0.00 | 0.00 | 86 | 1016.3 |
| 20260508074526 | 45 | 236 | 0.0 | 2.0 | 0.00 | 0.00 | 0.00 | 86 | 1016.4 |
| 20260508074009 | 45 | 238 | 0.0 | 2.0 | 0.00 | 0.00 | 0.00 | 85 | 1016.6 |
| 20260508073503 | 45 | 220 | 0.0 | 2.0 | 0.00 | 0.00 | 0.00 | 85 | 1016.6 |
| 20260508073007 | 45 | 72 | 0.0 | 2.0 | 0.00 | 0.00 | 0.00 | 85 | 1016.5 |
| 20260508072503 | 45 | 92 | 0.0 | 2.0 | 0.00 | 0.00 | 0.00 | 85 | 1016.4 |
| 20260508072004 | 46 | 92 | 0.0 | 2.0 | 0.00 | 0.00 | 0.00 | 84 | 1016.3 |
| 20260508071518 | 46 | 92 | 0.0 | 2.0 | 0.00 | 0.00 | 0.00 | 85 | 1016.3 |
| 20260508071008 | 46 | 39 | 0.0 | 2.0 | 0.00 | 0.00 | 0.00 | 85 | 1016.3 |
| 20260508070513 | 46 | 39 | 0.0 | 2.0 | 0.00 | 0.00 | 0.00 | 84 | 1016.2 |
| 20260508070027 | 47 | 36 | 0.0 | 2.0 | 0.00 | 0.00 | 0.00 | 84 | 1016.1 |
| 20260508065504 | 47 | 47 | 0.0 | 2.0 | 0.00 | 0.00 | 0.00 | 84 | 1016.2 |
| 20260508065008 | 47 | 47 | 0.0 | 2.0 | 0.00 | 0.00 | 0.00 | 84 | 1016.1 |
| 20260508064512 | 47 | 51 | 0.0 | 2.0 | 0.00 | 0.00 | 0.00 | 83 | 1015.9 |
| 20260508064006 | 48 | 51 | 0.0 | 2.0 | 0.00 | 0.00 | 0.00 | 82 | 1015.9 |
| 20260508063507 | 48 | 52 | 0.0 | 2.0 | 0.00 | 0.00 | 0.00 | 81 | 1015.7 |